Overview Statistics Trail Chart Weather Telemetry Raw packets
 

This is the latest recevied weather packets stored in our database for station/object W5MAI. If no packets are shown the sender has not sent any weather packets the latest 10 day(s).

<< 14 15 16 17 18 19 20 >>
Time Temp. Humidity Pressure Rain* Wind** Luminosity Snow
1788403440 28.89° C 64% 1013.8 hPa 0 mm - 0 W/m² -
1788402857 28.89° C 62% 1013.7 hPa 0 mm - 0 W/m² -
1788402223 29.44° C 62% 1013.6 hPa 0 mm - 0 W/m² -
1788401644 29.44° C 63% 1013.4 hPa 0 mm - 0 W/m² -
1788401006 30° C 61% 1013.3 hPa 0 mm - 0 W/m² -
1788400430 30.56° C 59% 1013.2 hPa 0 mm - 0 W/m² -
1788399861 31.11° C 58% 1013.1 hPa 0 mm - 0 W/m² -
1788399214 31.67° C 54% 1013.1 hPa 0 mm - 0 W/m² -
1788398609 32.22° C 53% 1013 hPa 0 mm - 0 W/m² -
1788398018 32.78° C 52% 1012.9 hPa 0 mm - 0 W/m² -
1788397437 33.33° C 48% 1012.9 hPa 0 mm - 0 W/m² -
1788396807 34.44° C 46% 1012.9 hPa 0 mm - 5 W/m² -
1788396228 35° C 43% 1013 hPa 0 mm - 14 W/m² -
1788395657 35° C 40% 1012.9 hPa 0 mm - 23 W/m² -
1788395021 35.56° C 39% 1012.9 hPa 0 mm - 42 W/m² -
1788394445 36.11° C 39% 1012.9 hPa 0 mm - 65 W/m² -
1788393807 36.11° C 39% 1013 hPa 0 mm - 98 W/m² -
1788393227 36.67° C 38% 1013 hPa 0 mm - 132 W/m² -
1788392657 36.67° C 38% 1013.1 hPa 0 mm - 169 W/m² -
1788392016 36.67° C 38% 1013 hPa 0 mm - 209 W/m² -
1788391452 36.67° C 38% 1013.2 hPa 0 mm - 239 W/m² -
1788390825 37.22° C 36% 1013.1 hPa 0 mm - 278 W/m² -
1788390245 37.22° C 37% 1013 hPa 0 mm - 318 W/m² -
1788389614 37.22° C 36% 1012.9 hPa 0 mm - 359 W/m² -
1788389034 37.78° C 36% 1013.1 hPa 0 mm - 392 W/m² -

* Rain latest hour (hover to see other rain measurements)
** Current wind speed in m/s (hover to see current wind gust speed)